PGT774R LIME-LTFJ

Flight info

Callsign PGT774R
Flight time N/A
Altitude 35000
Route LEGLO L615 NEVNI DCT LABIN DCT ULPIN DCT ELTIB DCT NISVA N739 WAK T343 BLO DCT BUFRA DCT ADORU UM19 IBODU
Aircraft A21N/M-SDE2E3FGHIRWXY/LB1

Departure

Time N/A
Airport Il Caravaggio International Airport (LIME)

Arrival

Time 2026-04-30 19:19
Airport Istanbul Sabiha Gökçen International Airport (LTFJ)
Time Latitude Longitude Altitude Speed Heading
2026-04-30 18:06 43.17594 21.98336 35293 ft 495 kts 109°
2026-04-30 18:08 43.09871 22.29637 35267 ft 496 kts 110°
2026-04-30 18:10 43.00939 22.65283 35283 ft 496 kts 110°
2026-04-30 18:11 42.95928 22.82779 35273 ft 492 kts 124°
2026-04-30 18:11 42.90431 22.94627 35271 ft 492 kts 126°
2026-04-30 18:13 42.82137 23.12507 35269 ft 493 kts 126°
2026-04-30 18:14 42.72975 23.32172 35283 ft 493 kts 126°
2026-04-30 18:15 42.62856 23.56686 35283 ft 497 kts 122°
2026-04-30 18:16 42.57313 23.73852 35273 ft 508 kts 96°
2026-04-30 18:17 42.57402 23.78646 35281 ft 510 kts 81°
2026-04-30 18:17 42.58222 23.83310 35283 ft 509 kts 72°
2026-04-30 18:17 42.60953 23.92102 35286 ft 505 kts 58°
2026-04-30 18:18 42.62714 23.96221 35282 ft 504 kts 56°
2026-04-30 18:18 42.66341 24.04363 35283 ft 504 kts 55°
2026-04-30 18:19 42.69935 24.12548 35286 ft 504 kts 56°
2026-04-30 18:19 42.73496 24.20688 35294 ft 504 kts 56°
2026-04-30 18:20 42.77089 24.28898 35296 ft 504 kts 56°
2026-04-30 18:20 42.80664 24.37111 35308 ft 504 kts 56°
2026-04-30 18:21 42.83955 24.44679 35312 ft 504 kts 56°
2026-04-30 18:21 42.87527 24.52922 35305 ft 505 kts 56°
2026-04-30 18:22 42.91090 24.61171 35319 ft 505 kts 56°
2026-04-30 18:22 42.96425 24.73578 35337 ft 505 kts 56°
2026-04-30 18:23 42.99948 24.81819 35335 ft 505 kts 56°
2026-04-30 18:23 43.03487 24.90107 35341 ft 505 kts 56°
2026-04-30 18:24 43.08785 25.02581 35356 ft 505 kts 57°
2026-04-30 18:25 43.12325 25.10910 35347 ft 505 kts 56°
2026-04-30 18:25 43.17630 25.23395 35350 ft 505 kts 56°
2026-04-30 18:26 43.22912 25.35909 35338 ft 506 kts 57°
2026-04-30 18:27 43.28147 25.48423 35331 ft 506 kts 57°
2026-04-30 18:28 43.33382 25.61011 35329 ft 506 kts 57°
2026-04-30 18:28 43.38619 25.73606 35324 ft 506 kts 57°
2026-04-30 18:29 43.45602 25.90448 35322 ft 506 kts 57°
2026-04-30 18:30 43.52535 26.07236 35320 ft 506 kts 57°
2026-04-30 18:31 43.57755 26.19883 35320 ft 505 kts 57°
2026-04-30 18:32 43.62972 26.32535 35317 ft 505 kts 57°
2026-04-30 18:33 43.68184 26.45183 35316 ft 505 kts 57°
2026-04-30 18:33 43.73380 26.57790 35313 ft 505 kts 57°
2026-04-30 18:34 43.78599 26.70460 35316 ft 505 kts 57°
2026-04-30 18:35 43.82080 26.78914 35312 ft 505 kts 57°
2026-04-30 18:35 43.85558 26.87368 35312 ft 505 kts 57°
2026-04-30 18:36 43.90762 27.00015 35309 ft 505 kts 57°
2026-04-30 18:37 43.94906 27.10091 35290 ft 505 kts 57°
2026-04-30 18:37 43.98270 27.18664 35279 ft 508 kts 66°
2026-04-30 18:37 43.99333 27.23360 35292 ft 511 kts 77°
2026-04-30 18:38 43.99743 27.28249 35295 ft 510 kts 91°
2026-04-30 18:38 43.99347 27.33063 35291 ft 507 kts 107°
2026-04-30 18:38 43.98159 27.37620 35291 ft 499 kts 121°
2026-04-30 18:38 43.96290 27.41617 35294 ft 489 kts 135°
2026-04-30 18:39 43.93890 27.44885 35294 ft 478 kts 149°
2026-04-30 18:39 43.91119 27.47304 35286 ft 465 kts 162°
2026-04-30 18:39 43.88122 27.48830 35287 ft 452 kts 174°
2026-04-30 18:39 43.85060 27.49463 35283 ft 440 kts 186°
2026-04-30 18:40 43.82048 27.49271 35283 ft 429 kts 195°
2026-04-30 18:40 43.76158 27.48077 35281 ft 427 kts 196°
2026-04-30 18:41 43.70258 27.46915 35274 ft 428 kts 196°
2026-04-30 18:41 43.64344 27.45801 35270 ft 429 kts 195°
2026-04-30 18:42 43.58460 27.44705 35268 ft 428 kts 196°
2026-04-30 18:42 43.49598 27.43038 35268 ft 428 kts 196°
2026-04-30 18:45 43.17565 27.37094 35244 ft 426 kts 196°
2026-04-30 18:46 43.11687 27.36008 35239 ft 425 kts 196°
2026-04-30 18:46 43.05827 27.34928 35235 ft 425 kts 196°
2026-04-30 18:47 42.99960 27.33850 35235 ft 425 kts 196°
2026-04-30 18:47 42.94108 27.32775 35238 ft 424 kts 197°
2026-04-30 18:48 42.88267 27.31705 35217 ft 423 kts 197°
2026-04-30 18:48 42.82424 27.30637 35225 ft 423 kts 197°
2026-04-30 18:49 42.76592 27.29571 35224 ft 423 kts 197°
2026-04-30 18:49 42.70757 27.28510 35227 ft 423 kts 197°
2026-04-30 18:50 42.64966 27.27456 35220 ft 423 kts 197°
2026-04-30 18:50 42.59126 27.26395 35217 ft 423 kts 197°
2026-04-30 18:51 42.53292 27.25339 35218 ft 423 kts 197°
2026-04-30 18:51 42.47442 27.24282 35215 ft 424 kts 197°
2026-04-30 18:52 42.41596 27.23226 35219 ft 424 kts 197°
2026-04-30 18:52 42.35743 27.22172 35209 ft 424 kts 197°
2026-04-30 18:53 42.29922 27.21123 35202 ft 425 kts 197°
2026-04-30 18:53 42.24055 27.20071 35188 ft 425 kts 197°
2026-04-30 18:54 42.18186 27.19020 35188 ft 426 kts 197°
2026-04-30 18:54 42.12299 27.17966 35184 ft 426 kts 197°
2026-04-30 18:55 42.06423 27.16919 35181 ft 426 kts 197°
2026-04-30 18:55 41.97552 27.16050 35165 ft 445 kts 179°
2026-04-30 18:56 41.91810 27.19631 35167 ft 477 kts 148°
2026-04-30 18:56 41.89297 27.22627 35174 ft 486 kts 144°
2026-04-30 18:57 41.81827 27.31727 34757 ft 481 kts 146°
2026-04-30 18:57 41.79312 27.34711 34471 ft 483 kts 146°
2026-04-30 18:57 41.76783 27.37696 34216 ft 484 kts 146°
2026-04-30 18:58 41.71757 27.43620 33665 ft 484 kts 146°
2026-04-30 18:58 41.69227 27.46599 33386 ft 484 kts 146°
2026-04-30 18:58 41.66701 27.49573 33111 ft 484 kts 146°
2026-04-30 18:59 41.61631 27.55530 32567 ft 485 kts 146°
2026-04-30 19:00 41.54047 27.64412 31795 ft 486 kts 146°
2026-04-30 19:00 41.51463 27.67432 31402 ft 485 kts 146°
2026-04-30 19:00 41.46393 27.73352 29804 ft 484 kts 146°
2026-04-30 19:01 41.41310 27.79266 27956 ft 485 kts 145°
2026-04-30 19:01 41.38771 27.82220 27185 ft 483 kts 145°
2026-04-30 19:02 41.33725 27.88081 25709 ft 479 kts 144°
2026-04-30 19:02 41.28732 27.93861 24301 ft 473 kts 144°
2026-04-30 19:03 41.23820 27.99542 22778 ft 462 kts 144°
2026-04-30 19:03 41.19022 28.05083 21293 ft 450 kts 144°
2026-04-30 19:04 41.14361 28.10446 19934 ft 437 kts 144°
2026-04-30 19:04 41.10075 28.16053 18203 ft 441 kts 128°
2026-04-30 19:05 41.07332 28.23217 16099 ft 426 kts 119°
2026-04-30 19:05 41.04786 28.30111 14172 ft 406 kts 121°
2026-04-30 19:06 41.02300 28.36600 12632 ft 378 kts 121°
2026-04-30 19:06 41.01158 28.39578 12270 ft 357 kts 121°
2026-04-30 19:06 40.99014 28.45141 11592 ft 323 kts 122°
2026-04-30 19:07 40.97029 28.50261 10596 ft 308 kts 122°
2026-04-30 19:07 40.96050 28.52782 9956 ft 307 kts 122°
2026-04-30 19:08 40.94121 28.57746 8713 ft 300 kts 121°
2026-04-30 19:08 40.92231 28.62608 7955 ft 293 kts 121°
2026-04-30 19:08 40.91301 28.65001 7640 ft 292 kts 121°
2026-04-30 19:09 40.89438 28.69784 6980 ft 293 kts 121°
2026-04-30 19:09 40.88510 28.72161 6695 ft 288 kts 121°
2026-04-30 19:09 40.87614 28.74465 6429 ft 276 kts 120°
2026-04-30 19:10 40.85934 28.78772 5989 ft 256 kts 120°
2026-04-30 19:10 40.84363 28.82791 5648 ft 239 kts 120°
2026-04-30 19:11 40.83600 28.84737 5343 ft 240 kts 119°
2026-04-30 19:11 40.82086 28.88600 4986 ft 233 kts 118°
2026-04-30 19:11 40.81343 28.90494 4885 ft 231 kts 118°
2026-04-30 19:12 40.80607 28.92384 4800 ft 230 kts 117°
2026-04-30 19:12 40.79876 28.94265 4720 ft 230 kts 117°
2026-04-30 19:12 40.79232 28.95911 4639 ft 230 kts 117°
2026-04-30 19:13 40.77779 28.99651 4516 ft 229 kts 114°
2026-04-30 19:13 40.77953 29.03597 4429 ft 226 kts 58°
2026-04-30 19:13 40.78842 29.05303 4365 ft 225 kts 53°
2026-04-30 19:14 40.79723 29.06995 4167 ft 221 kts 57°
2026-04-30 19:14 40.80504 29.08717 3898 ft 216 kts 60°
2026-04-30 19:14 40.81183 29.10451 3641 ft 207 kts 63°
2026-04-30 19:14 40.81802 29.12114 3418 ft 198 kts 63°
2026-04-30 19:15 40.82387 29.13701 3144 ft 192 kts 63°
2026-04-30 19:15 40.83481 29.16669 2612 ft 164 kts 63°
2026-04-30 19:15 40.83939 29.17916 2425 ft 137 kts 62°
2026-04-30 19:16 40.84326 29.18967 2212 ft 124 kts 62°
2026-04-30 19:16 40.84702 29.19987 2044 ft 123 kts 62°
2026-04-30 19:16 40.85445 29.22006 1736 ft 123 kts 62°
2026-04-30 19:17 40.85818 29.23018 1549 ft 122 kts 61°
2026-04-30 19:17 40.86551 29.25020 1263 ft 121 kts 62°
2026-04-30 19:17 40.86913 29.26017 1020 ft 119 kts 61°
2026-04-30 19:18 40.87406 29.27332 829 ft 119 kts 61°
2026-04-30 19:18 40.88010 29.28980 574 ft 120 kts 61°
2026-04-30 19:18 40.88372 29.29951 386 ft 118 kts 62°
2026-04-30 19:19 40.88728 29.30917 305 ft 108 kts 61°
2026-04-30 19:19 40.88997 29.31646 314 ft 61 kts 64°
2026-04-30 19:19 40.89179 29.32144 310 ft 6 kts 64°
2026-04-30 19:20 40.89200 29.32199 311 ft 8 kts 62°
2026-04-30 19:20 40.89235 29.32268 311 ft 10 kts 52°
2026-04-30 19:20 40.89357 29.32425 313 ft 16 kts 36°
2026-04-30 19:21 40.89424 29.32484 311 ft 10 kts 33°
2026-04-30 19:21 40.89500 29.32476 312 ft 6 kts 284°
2026-04-30 19:22 40.89495 29.32417 312 ft 4 kts 264°
2026-04-30 19:22 40.89634 29.32322 311 ft 11 kts 333°
2026-04-30 19:23 40.89918 29.32138 319 ft 20 kts 334°
2026-04-30 19:24 40.90069 29.32053 326 ft 8 kts 23°
2026-04-30 19:24 40.90112 29.32114 326 ft 10 kts 64°
2026-04-30 19:24 40.90186 29.32319 325 ft 15 kts 64°
2026-04-30 19:25 40.90312 29.32587 326 ft 8 kts
2026-04-30 19:26 40.90427 29.32520 325 ft 11 kts 334°
2026-04-30 19:26 40.90520 29.32460 325 ft 1 kts 334°
2026-04-30 19:26 40.90532 29.32453 325 ft 4 kts 334°
2026-04-30 19:27 40.90608 29.32385 326 ft 7 kts 291°
2026-04-30 19:27 40.90660 29.32313 326 ft 4 kts 335°
2026-04-30 19:28 40.90696 29.32291 326 ft 7 kts 335°
2026-04-30 19:28 40.90720 29.32170 324 ft 10 kts 241°
2026-04-30 19:29 40.90652 29.32161 326 ft 2 kts 154°
2026-04-30 19:29 40.90642 29.32168 326 ft 1 kts 154°
2026-04-30 19:30 40.90635 29.32172 326 ft 0 kts 154°